Theta_e
325 325 325 325 322 321 319 319 319 319 319 319 320 322 325 326 328 322 316 320 322 327 326 320 317 316 317 313 318 317 303 299 301 301 303 309 307 312 314 311 314 315 315 318 323
321 324 325 325 324 322 320 319 319 318 318 319 320 321 322 324 322 317 324 328 330 328 321 315 311 312 310 311 313 309 303 302 306 307 305 308 308 309 309 310 311 314 317 319 323
318 321 323 324 324 323 321 320 319 318 318 318 319 320 320 322 313 313 327 332 332 330 322 318 315 311 306 310 309 308 303 306 307 309 310 309 309 312 309 307 312 312 314 317 319
314 317 320 322 323 324 322 320 319 318 317 317 318 319 320 317 298 315 324 324 329 328 322 316 312 307 304 303 307 302 307 308 308 311 309 308 311 310 310 310 314 316 317 318 319
312 314 316 319 321 323 323 321 320 318 317 317 317 318 314 305 306 316 318 316 322 324 318 313 309 307 302 303 305 303 304 306 308 308 308 308 306 307 308 313 316 317 317 318 319
311 312 313 315 318 320 322 322 320 319 318 317 316 317 307 295 309 313 312 316 321 320 318 315 311 309 305 303 303 304 304 305 306 306 306 304 305 306 308 312 311 312 313 315 317
310 312 312 312 315 318 321 321 320 319 318 317 317 313 306 302 312 313 312 313 318 321 315 316 313 308 308 303 307 305 300 303 304 304 303 305 300 301 308 310 308 310 312 313 315
309 310 311 312 312 316 319 322 321 320 318 317 317 310 300 309 314 309 311 311 315 317 318 320 316 311 307 308 303 299 300 295 301 302 303 303 295 303 308 308 308 310 311 311 313
308 310 311 311 311 314 316 320 320 319 318 317 311 306 299 310 306 309 311 309 311 311 313 318 315 305 305 300 296 297 293 293 297 302 301 301 298 304 308 307 306 308 310 312 313
308 308 310 311 311 314 314 319 319 317 315 314 310 301 303 301 306 308 310 310 307 308 306 305 303 298 298 296 289 291 292 294 293 298 299 297 297 302 305 305 305 307 309 310 311
307 308 309 309 311 312 312 314 303 300 304 300 300 298 301 306 310 306 308 306 306 304 297 301 295 291 294 296 296 294 293 291 294 298 296 295 295 298 302 302 302 303 305 307 309
307 308 308 309 310 310 308 303 303 306 296 303 304 303 305 307 299 303 308 300 300 295 298 294 290 296 296 296 294 292 291 291 294 297 295 294 293 297 299 299 301 302 303 304 306
307 307 308 308 309 307 304 305 309 309 297 297 302 300 303 305 299 301 304 301 297 294 294 292 292 295 294 293 291 290 288 289 290 294 295 292 290 295 298 299 300 301 302 304 304
306 307 307 307 304 303 302 311 309 307 289 290 295 299 302 304 297 306 306 301 297 293 294 293 296 293 292 291 292 288 293 292 290 288 283 291 283 292 296 297 298 300 301 302 304
307 307 307 306 302 299 302 310 307 301 279 291 293 306 303 297 299 299 306 301 294 293 294 290 292 292 289 291 293 289 293 291 291 288 286 288 282 289 293 293 296 299 302 303 304
307 308 308 304 303 303 308 307 301 285 278 288 294 294 293 296 297 300 299 303 300 295 295 293 297 294 294 295 295 294 291 290 291 288 281 286 284 287 292 294 296 299 301 302 303
307 308 306 306 298 308 309 298 284 282 289 286 288 293 292 290 293 295 294 292 290 285 286 291 292 295 295 290 293 291 287 281 279 279 280 288 286 288 294 296 297 298 300 302 304
309 308 307 306 308 308 303 289 281 285 287 292 292 292 289 291 291 292 291 289 294 292 288 285 284 291 295 292 289 288 288 282 276 279 282 287 282 288 296 298 299 299 302 305 306
306 305 304 306 307 305 293 282 285 287 290 288 290 286 286 289 290 290 290 289 292 293 285 285 284 292 295 295 293 288 284 291 283 285 281 284 288 293 296 296 297 299 302 303 306
300 300 300 307 307 298 287 286 287 293 293 292 286 287 283 286 288 288 288 292 291 295 296 290 283 289 291 295 294 291 293 283 284 276 275 282 284 285 291 293 298 298 300 304 305
299 292 302 307 303 291 285 286 291 295 295 291 288 287 288 287 289 288 288 290 293 293 296 292 287 285 290 287 287 287 285 287 287 284 278 277 283 292 292 294 296 298 301 304 305
296 287 302 304 288 290 288 291 295 293 296 294 294 291 290 290 288 289 287 289 294 294 290 292 287 281 285 292 294 291 288 287 281 280 282 282 282 295 296 298 299 298 300 304 305
291 294 303 302 286 288 291 293 294 293 293 293 292 294 293 290 287 290 290 293 294 293 291 293 286 281 284 288 291 287 289 289 288 286 282 279 283 294 296 298 298 297 300 303 305
295 287 293 296 296 291 290 290 290 296 295 296 294 295 293 290 291 288 289 293 294 294 296 295 289 285 282 286 290 285 288 288 286 281 283 283 286 290 292 293 296 297 299 301 303
297 289 293 287 290 292 293 292 290 290 295 296 293 293 292 288 288 288 290 292 293 295 295 293 284 287 288 289 289 287 287 287 284 286 282 286 287 291 293 295 296 297 299 300 302
293 293 295 293 293 292 292 291 291 291 293 291 292 293 293 290 290 288 290 291 290 293 293 294 285 287 284 289 289 287 289 290 289 288 287 288 288 295 297 297 296 298 298 298 301
299 300 298 293 292 291 291 292 292 295 295 296 295 294 292 294 296 297 296 295 293 293 291 291 287 285 283 289 289 286 290 290 290 291 290 285 291 295 294 295 296 297 298 300 301
Wind_Speed
19 17 16 14 11 11 9 8 8 7 8 8 9 10 9 6 10 8 11 4 5 9 3 2 3 4 4 6 4 3 8 13 20 15 10 4 10 7 1 7 3 3 3 4 1
22 21 18 14 14 12 11 9 8 6 7 6 7 6 6 6 9 10 7 9 12 4 10 7 6 6 5 6 6 10 10 16 7 11 7 7 6 2 6 9 11 7 4 2 3
22 22 21 18 16 13 12 10 8 6 6 5 5 5 4 6 5 5 7 16 16 11 5 6 4 5 8 6 8 8 14 11 6 6 4 8 10 7 10 13 13 11 4 1 1
22 23 21 21 19 17 13 12 10 7 6 4 3 4 4 3 7 6 5 4 9 12 9 8 6 6 6 9 6 8 11 10 5 8 6 10 7 12 14 19 8 7 8 8 9
22 23 22 21 21 18 15 14 12 9 6 3 2 1 4 5 5 2 4 3 5 15 13 8 8 6 9 4 5 11 9 7 9 9 11 11 17 19 18 17 17 15 14 15 15
22 21 21 21 21 21 15 15 14 11 9 5 2 2 3 8 4 1 1 1 3 14 15 12 6 4 2 4 9 1 7 10 9 12 13 16 21 18 21 19 21 21 23 22 20
22 21 21 20 22 19 17 18 15 12 10 7 5 3 4 6 2 2 2 3 2 11 12 8 9 6 7 5 4 5 11 12 14 13 14 10 20 20 25 22 24 22 21 20 21
22 22 21 21 19 18 20 20 17 13 12 9 7 3 5 1 3 2 3 5 5 4 5 10 8 4 5 2 4 4 5 6 4 3 5 9 15 6 6 15 16 18 20 22 23
21 22 22 20 19 18 20 18 17 15 12 11 6 3 4 2 5 4 6 8 9 9 8 7 8 4 5 7 6 7 8 8 10 8 7 12 11 6 3 7 12 12 13 13 16
21 21 22 20 19 18 16 15 18 13 9 6 3 4 4 3 4 5 5 11 6 11 8 5 4 6 7 8 6 5 12 10 11 1 8 16 22 20 19 21 20 18 17 18 17
22 19 20 20 16 15 11 7 9 5 6 6 8 1 4 4 5 3 8 9 9 11 9 7 7 11 14 13 12 4 7 10 9 9 18 21 24 22 21 23 24 23 22 22 22
20 18 19 18 18 16 9 5 10 11 7 8 7 5 2 1 5 7 9 9 13 13 9 6 12 11 7 10 12 14 16 17 15 13 13 20 33 25 27 29 26 25 24 24 24
21 20 19 19 17 12 6 6 9 11 5 6 11 6 4 5 3 11 14 7 11 12 16 8 2 4 13 12 13 15 16 15 18 17 18 21 30 18 7 10 15 21 24 23 24
16 18 20 17 11 7 6 8 9 6 3 9 9 7 12 7 5 9 14 6 5 12 10 9 10 6 9 12 12 15 7 13 14 11 8 3 15 17 15 13 12 12 14 17 18
18 24 22 12 7 4 4 7 2 4 7 12 7 8 10 11 10 6 12 4 8 9 7 3 6 11 13 15 10 7 6 7 9 13 15 16 9 11 4 11 10 14 14 14 14
28 24 22 8 6 6 3 6 4 5 7 8 8 12 13 14 7 7 7 3 1 7 8 9 2 5 8 10 13 1 7 11 11 8 11 18 16 20 15 10 8 7 11 12 12
32 28 17 11 8 6 5 3 5 5 6 9 10 13 14 13 10 9 11 10 7 6 8 5 16 8 7 7 7 12 3 4 5 8 9 1 12 22 5 6 13 21 14 14 15
30 10 8 10 12 5 4 2 4 7 7 5 14 16 7 17 7 9 11 10 14 6 3 4 4 13 12 15 6 14 13 7 7 7 8 2 14 10 9 10 12 8 9 11 14
28 3 3 6 12 2 6 6 3 7 12 13 12 8 5 11 5 8 9 8 9 15 6 5 5 2 11 7 12 5 11 12 15 21 14 14 22 25 25 22 14 8 5 10 12
6 4 4 12 13 6 3 3 3 6 18 18 7 7 10 14 9 12 12 4 11 14 12 2 5 6 2 7 11 10 1 5 7 7 12 14 18 14 9 3 9 2 7 12 13
2 2 6 14 7 4 2 2 5 13 12 4 7 9 8 12 10 10 5 3 8 10 16 7 5 4 4 14 14 10 7 7 9 9 8 15 13 3 11 12 4 2 6 9 12
2 1 6 8 3 2 3 3 7 10 2 4 6 8 13 10 9 8 8 3 7 10 11 11 4 9 15 10 13 15 16 20 11 12 10 17 22 5 3 8 4 7 7 9 9
1 3 5 3 3 3 2 3 4 4 3 3 5 4 3 7 5 6 5 2 10 10 10 12 6 5 4 4 6 10 17 23 19 13 19 11 15 3 8 13 7 6 10 10 10
2 3 3 1 1 5 4 4 6 5 5 7 8 7 6 4 1 3 6 2 9 12 6 11 5 9 10 11 4 10 18 13 18 13 21 22 33 22 14 15 15 17 10 9 6
2 3 1 4 4 5 1 4 8 4 4 3 4 4 4 4 4 4 6 3 5 8 8 9 6 10 18 24 21 23 27 26 18 24 18 27 23 24 17 18 18 16 8 9 6
3 1 2 5 8 9 5 5 5 4 3 4 4 5 4 4 4 5 7 7 4 9 10 7 5 5 16 22 22 20 21 20 17 18 20 27 29 25 22 20 14 12 11 12 7
4 2 2 7 7 9 6 6 6 7 2 3 4 4 4 7 5 7 6 4 3 6 12 6 3 3 7 15 25 7 5 8 7 9 10 16 20 15 12 8 10 11 12 11 10
Wind_Direction
346 315 303 247 242 244 235 245 263 275 285 291 300 313 337 331 163 174 218 263 202 206 208 147 210 220 205 179 188 204 226 227 225 236 228 197 222 202 262 250 219 201 279 43 55
340 343 320 285 237 234 233 230 245 263 279 290 300 306 325 321 187 216 229 231 220 190 187 179 187 203 196 189 187 212 227 236 247 245 235 207 241 237 234 206 221 213 176 45 155
337 341 335 314 267 236 238 228 231 242 266 279 301 297 308 279 232 227 201 233 232 184 171 141 154 214 211 193 185 199 232 227 226 234 242 245 238 236 244 243 232 226 251 19 55
334 333 339 331 312 260 228 226 223 214 238 260 306 295 293 231 223 124 80 346 242 186 167 143 172 191 215 203 189 226 240 239 246 230 253 245 272 245 242 246 262 273 291 282 270
331 329 332 329 325 300 235 220 213 203 206 220 275 304 232 208 239 119 321 327 234 193 185 163 182 198 222 212 202 230 245 245 245 252 256 267 252 261 263 251 256 261 260 264 267
325 322 317 321 322 318 259 212 211 199 182 191 190 224 219 232 82 10 279 128 194 185 196 181 191 213 240 229 233 203 259 265 262 254 262 262 262 255 250 255 255 254 254 252 256
313 319 315 314 315 313 290 214 206 196 178 178 176 206 230 257 162 11 50 92 125 197 177 183 145 181 171 204 222 264 278 269 258 252 260 258 261 242 254 250 253 250 247 249 248
317 316 311 306 310 313 310 223 192 185 175 166 160 191 252 166 258 255 174 118 97 94 187 160 143 167 222 153 194 248 256 274 108 187 227 209 261 232 273 240 249 255 252 249 244
313 313 308 305 304 307 309 236 183 172 164 145 151 222 252 157 214 189 187 149 122 107 100 126 157 148 171 222 242 214 261 236 282 243 271 216 281 260 267 248 257 264 266 256 255
313 313 312 306 302 309 297 237 166 152 149 143 127 232 211 189 146 135 162 158 137 136 126 149 155 183 216 205 235 250 230 244 256 171 274 273 269 270 267 270 269 264 261 258 254
312 308 310 309 295 304 305 195 139 157 202 183 173 157 122 112 138 138 165 148 142 177 181 196 206 210 219 225 249 291 271 260 263 276 293 276 273 273 273 268 264 259 258 258 255
310 302 305 313 298 310 309 243 182 149 175 193 146 211 223 115 135 149 186 172 181 197 178 182 233 236 222 225 239 253 264 269 283 279 282 291 284 282 270 261 258 256 256 252 254
306 304 309 307 295 297 227 226 218 172 104 162 203 210 167 198 173 170 190 172 186 174 195 201 127 230 211 222 236 246 256 268 268 287 290 287 282 263 261 256 253 247 252 255 253
312 311 304 307 288 307 266 200 288 260 141 166 190 206 184 177 217 165 186 170 175 201 189 234 224 180 190 224 233 261 258 256 273 284 274 72 292 285 279 277 252 251 241 244 245
311 301 290 271 298 290 291 162 334 359 193 133 148 141 168 181 132 166 182 203 183 166 177 163 184 203 224 232 220 244 240 252 268 271 287 252 251 276 173 268 259 263 265 261 252
317 291 281 252 235 246 35 91 86 140 197 153 136 167 153 191 159 127 166 229 230 202 233 252 178 202 218 218 214 22 234 246 260 255 248 241 208 273 266 275 254 235 291 295 281
312 291 272 209 202 171 148 52 126 199 166 147 168 159 158 171 160 155 174 177 180 176 214 236 235 209 197 220 212 220 178 253 223 211 249 303 213 249 260 224 262 290 312 309 300
328 307 230 195 196 160 167 159 188 112 140 155 144 145 156 155 173 165 167 190 218 202 135 223 230 200 181 216 206 204 211 232 257 243 303 38 247 244 252 259 269 293 307 317 322
332 344 87 164 148 150 141 193 156 162 139 140 130 140 133 169 162 167 194 204 203 197 202 185 252 173 193 202 206 166 213 235 279 271 269 252 263 278 266 255 249 251 298 316 329
319 330 115 137 120 98 117 131 222 144 133 145 130 188 164 173 165 186 184 201 214 196 205 171 262 204 189 216 231 211 356 189 195 256 245 250 255 260 257 257 169 264 344 339 335
283 262 131 123 89 85 134 50 100 140 133 156 127 142 155 168 184 183 168 158 203 189 190 186 210 146 170 207 202 190 217 215 277 246 264 272 261 353 275 249 214 301 356 352 340
246 155 140 133 113 74 120 205 121 148 115 104 94 99 149 162 170 181 197 237 175 159 192 190 213 242 233 242 228 240 236 221 233 237 236 252 261 229 197 171 223 313 343 353 353
111 112 157 288 130 128 214 127 121 130 48 98 99 74 128 154 148 182 188 155 177 186 181 166 215 278 231 203 214 236 238 236 240 262 243 250 262 76 207 233 257 293 332 336 341
114 85 74 107 298 115 130 63 100 46 72 73 104 94 111 117 159 150 205 204 196 207 199 187 221 237 262 283 317 256 262 241 232 245 257 238 260 257 261 265 260 274 310 316 344
51 59 344 146 142 124 41 112 145 111 73 85 103 119 140 139 160 207 207 220 191 206 199 201 253 248 260 272 279 271 274 276 245 240 246 263 252 266 273 277 284 290 284 315 316
27 123 176 135 142 177 143 189 146 111 132 121 109 150 174 165 188 192 191 218 222 185 196 207 267 302 286 276 269 275 273 274 260 251 249 258 266 274 282 274 270 258 280 293 275
337 313 272 141 161 177 176 176 162 134 125 128 155 169 200 227 233 245 228 256 272 207 198 215 235 290 274 318 309 282 318 287 269 252 254 242 252 274 280 263 297 290 293 283 290